Retour au catalogue

STARLINK-34001

ActifCommunicationsVLEO
NORAD 64272·PAYLOAD·🇺🇸 United States

Lancé Jun 4, 2025 depuis Vandenberg Space Force Base

Loading…

Prochains Passages (prochaines 24 heures)

TLE

FraisSource: CelesTrak SupGP

Époque: Sep 15, 2026, 03:34 UTC

1 64272C 25120S   26258.14909722  .00036894  00000+0  10898-2 0  2583
2 64272  53.1598 314.5308 0001240  89.6248 264.0509 15.34380440    11

Suivez STARLINK-34001 en temps réel avec AllMySat

Download on the App Store